Flight Track Log - Related Links

Times and Time Zones

All times are in EDT time to prevent confusion due to time zone crossing. See the SWA2130 flight status page for this flight to view local times or setup timezone preferences in your user account.

Time Position Orientation Groundspeed Altitude Reporting Facility
EDT Latitude Longitude Course Direction KTS MPH feet Rate Location/Type
Mon 11:06:00 PM 31.7628 -106.3925 189° South 206 237 7,800  Level Albuquerque Center
Mon 11:07:02 PM 31.7256 -106.3078 117° Southeast 295 339 10,600 3,122 Climbing Albuquerque Center
Mon 11:08:03 PM 31.6794 -106.2114 119° Southeast 337 388 14,200 3,541 Climbing Albuquerque Center
Mon 11:09:04 PM 31.6286 -106.1083 120° Southeast 364 419 17,800 3,492 Climbing Albuquerque Center
Mon 11:10:05 PM 31.5744 -105.9983 120° Southeast 388 447 21,300 3,344 Climbing Albuquerque Center
Mon 11:11:06 PM 31.5103 -105.8883 124° Southeast 410 472 24,600 2,927 Climbing Albuquerque Center
Mon 11:12:08 PM 31.4619 -105.7636 114° Southeast 423 487 27,300 2,390 Climbing Albuquerque Center
Mon 11:13:09 PM 31.4381 -105.6203 101° East 447 514 29,500 2,016 Climbing Albuquerque Center
Mon 11:14:10 PM 31.3992 -105.4742 107° East 470 541 31,400 1,820 Climbing Albuquerque Center
Mon 11:15:11 PM 31.3444 -105.3286 114° Southeast 484 557 33,200 2,000 Climbing Albuquerque Center
Mon 11:16:13 PM 31.3072 -105.1367 103° East 499 574 35,500 1,902 Climbing Albuquerque Center
Mon 11:17:14 PM 31.2822 -104.9719 100° East 506 582 37,100 1,623 Climbing Albuquerque Center
Mon 11:18:15 PM 31.2572 -104.8069 100° East 510 587 38,800 1,512 Climbing Albuquerque Center
Mon 11:19:17 PM 31.2311 -104.6422 100° East 511 588 40,200 1,122 Climbing Albuquerque Center
Mon 11:20:18 PM 31.2044 -104.4767 101° East 516 594 41,100 393 Climbing Albuquerque Center
Mon 11:21:19 PM 31.1775 -104.3111 101° East 518 596 41,000  Descending Albuquerque Center
Mon 11:22:21 PM 31.1508 -104.1469 101° East 517 595 41,100 49 Climbing Albuquerque Center
Mon 11:23:22 PM 31.1233 -103.9825 101° East 518 596 41,100 -49 Level Albuquerque Center
Mon 11:24:23 PM 31.0964 -103.8203 101° East 513 590 41,000  Descending Albuquerque Center
Mon 11:25:24 PM 31.0661 -103.6539 102° East 511 588 41,100  Climbing Albuquerque Center
Mon 11:26:26 PM 31.0386 -103.4922 101° East 512 589 41,000 -49 Descending Albuquerque Center
Mon 11:27:27 PM 31.0117 -103.3294 101° East 514 592 41,000  Level Albuquerque Center
Mon 11:28:28 PM 30.9789 -103.1364 101° East 510 587 41,000  Level Albuquerque Center
Mon 11:29:30 PM 30.9511 -102.9758 101° East 507 583 41,000  Level Albuquerque Center
Mon 11:30:31 PM 30.9103 -102.8172 107° East 513 590 41,000 49 Level Albuquerque Center
Mon 11:31:32 PM 30.8689 -102.6575 107° East 517 595 41,100  Climbing Albuquerque Center
Mon 11:32:33 PM 30.8275 -102.4992 107° East 518 596 41,000  Descending Albuquerque Center
Mon 11:33:35 PM 30.7864 -102.3433 107° East 514 592 41,100 49 Climbing Albuquerque Center
Mon 11:34:36 PM 30.7447 -102.1856 107° East 515 593 41,100 -49 Level Albuquerque Center
Mon 11:35:37 PM 30.6947 -101.9961 107° East 515 593 41,000  Descending Albuquerque Center
Mon 11:36:39 PM 30.6522 -101.8381 107° East 516 594 41,100  Climbing Albuquerque Center
Mon 11:38:23 PM 30.5817 -101.5725 107° East 513 590 41,000 -37 Descending Houston Center
Mon 11:39:23 PM 30.5400 -101.4133 107° East 515 593 41,000  Level Houston Center
Mon 11:40:24 PM 30.4969 -101.2567 108° East 513 590 41,000  Level Houston Center
Mon 11:41:25 PM 30.4542 -101.1003 108° East 511 588 41,000  Level Houston Center
Mon 11:42:25 PM 30.4131 -100.9422 107° East 511 588 41,000 -793 Level Houston Center
Mon 11:43:26 PM 30.3669 -100.7856 109° East 511 588 39,400 -2,016 Descending Houston Center
Mon 11:44:27 PM 30.3250 -100.6297 107° East 508 585 36,900 -2,678 Descending Houston Center
Mon 11:45:27 PM 30.2811 -100.4722 108° East 510 587 34,000 -2,727 Descending Houston Center
Mon 11:46:28 PM 30.2372 -100.3153 108° East 509 586 31,400 -2,459 Descending Houston Center
Mon 11:47:29 PM 30.1944 -100.1611 108° East 494 568 29,000 -2,331 Descending Houston Center
Mon 11:48:29 PM 30.1531 -100.0150 108° East 476 548 26,700 -2,231 Descending Houston Center
Mon 11:49:30 PM 30.1136 -99.8781 108° East 450 518 24,500 -2,132 Descending Houston Center
Mon 11:50:30 PM 30.0769 -99.7486 108° East 427 491 22,400 -1,983 Descending Houston Center
Mon 11:51:31 PM 30.0414 -99.6244 108° East 410 472 20,500 -1,884 Descending Houston Center
Mon 11:52:31 PM 30.0069 -99.5075 109° East 389 448 18,600 -1,884 Descending Houston Center
Mon 11:53:32 PM 29.9742 -99.3953 109° East 375 432 16,700 -2,019 Descending Houston Center
Mon 11:54:18 PM 29.9447 -99.2950 109° East 363 418 15,000 -1,869 Descending Houston Center
Mon 11:54:33 PM 29.9422 -99.2864 109° East 358 412 14,800 -1,814 Descending Houston Center
Mon 11:55:01 PM 29.9239 -99.2228 108° East 351 404 13,700 -1,800 Descending Houston Center
Mon 11:55:33 PM 29.9111 -99.1808 109° East 347 399 13,000 -1,800 Descending Houston Center
Mon 11:56:01 PM 29.8878 -99.1208 114° Southeast 340 391 11,900 -2,066 Descending Houston Center
Mon 11:56:34 PM 29.8672 -99.0675 114° Southeast 341 392 10,900 -1,745 Descending Houston Center
Mon 11:56:56 PM 29.8528 -99.0311 115° Southeast 334 384 10,300 -1,300 Descending Houston Center
Mon 11:57:34 PM 29.8308 -98.9722 113° Southeast 325 374 9,600 -1,500 Descending Houston Center
Mon 11:57:56 PM 29.8114 -98.9419 127° Southeast 314 361 8,800 -1,770 Descending Houston Center
Mon 11:58:35 PM 29.7833 -98.8883 121° Southeast 312 359 7,800 -1,574 Descending Houston Center
Mon 11:58:57 PM 29.7664 -98.8606 125° Southeast 298 343 7,200 -1,700 Descending Houston Center
Mon 11:59:35 PM 29.7406 -98.8119 121° Southeast 288 331 6,100 -1,770 Descending Houston Center
Mon 11:59:58 PM 29.7239 -98.7836 124° Southeast 280 322 5,400 -1,082 Descending Houston Center
Tue 12:00:36 AM 29.6975 -98.7325 121° Southeast 272 313 5,000 -400 Descending Houston Center
Tue 12:00:58 AM 29.6864 -98.7158 127° Southeast 245 282 5,000 -400 Level Houston Center
Tue 12:01:36 AM 29.6650 -98.6739 120° Southeast 224 258 4,600 -590 Descending Houston Center
Tue 12:01:59 AM 29.6536 -98.6550 125° Southeast 203 234 4,400 -689 Descending Houston Center
Tue 12:02:37 AM 29.6364 -98.6214 121° Southeast 194 223 3,900 -800 Descending Houston Center
Tue 12:02:59 AM 29.6283 -98.6075 124° Southeast 161 185 3,600 -800 Descending Houston Center
Tue 12:03:37 AM 29.6164 -98.5844 121° Southeast 146 168 3,100 -689 Descending Houston Center
Tue 12:04:00 AM 29.6106 -98.5758 128° Southeast 102 117 2,900 -590 Descending Houston Center
Tue 12:04:38 AM 29.5992 -98.5578 126° Southeast 114 131 2,500 -590 Descending Houston Center
Tue 12:05:01 AM 29.5914 -98.5494 137° Southeast 105 121 2,300 -600 Descending Houston Center
Tue 12:05:38 AM 29.5792 -98.5317 128° Southeast 109 125 1,900 -545 Descending Houston Center
Tue 12:06:07 AM 29.5700 -98.5206 133° Southeast 108 124 1,700 -590 Descending Houston Center
Tue 12:06:39 AM 29.5592 -98.5056 130° Southeast 108 124 1,300 -689 Descending Houston Center
Tue 12:07:08 AM 29.5483 -98.4919 132° Southeast 114 131 1,000 -500 Descending Houston Center
Tue 12:07:39 AM 29.5406 -98.4806 128° Southeast 112 129 800 -387 Descending Houston Center
Tue 12:09:00 AM 29.5333 -98.4667 120° Southeast  Level FlightAware Approximate
Tue 12:16:00 AM 29.5340 -98.4691 120° Southeast  Level Estimated
Tue 12:17:00 AM 29.5333 -98.4667 120° Southeast  Level FlightAware Approximate

Login

Don't have an account? Register now (free) for customized features, flight alerts, and more!